This is the latest recevied weather packets stored in our database for station/object F4IRV-1. If no packets are shown the sender has not sent any weather packets the latest 10 day(s).
| Time | Temp. | Humidity | Pressure | Rain* | Wind** | Luminosity | Snow |
|---|---|---|---|---|---|---|---|
| 1777493899 | 24.44° C | 36% | 1004.8 hPa | - | - | - | - |
| 1777490300 | 24.44° C | 37% | 1004.3 hPa | - | - | - | - |
| 1777488500 | 24.44° C | 37% | 1004 hPa | - | - | - | - |
| 1777486698 | 24.44° C | 37% | 1003.8 hPa | - | - | - | - |
| 1777484898 | 24.44° C | 37% | 1003.5 hPa | - | - | - | - |
| 1777483097 | 24.44° C | 37% | 1003.3 hPa | - | - | - | - |
| 1777481297 | 25° C | 37% | 1003.2 hPa | - | - | - | - |
| 1777479495 | 25° C | 37% | 1003.3 hPa | - | - | - | - |
| 1777478055 | 25° C | 37% | 1003.3 hPa | - | - | - | - |
| 1777476255 | 25° C | 37% | 1003.3 hPa | - | - | - | - |
| 1777474816 | 24.44° C | 37% | 1003.5 hPa | - | - | - | - |
| 1777473374 | 24.44° C | 37% | 1003.6 hPa | - | - | - | - |
| 1777471574 | 24.44° C | 38% | 1003.9 hPa | - | - | - | - |
| 1777470138 | 24.44° C | 38% | 1003.9 hPa | - | - | - | - |
| 1777468694 | 24.44° C | 39% | 1003.7 hPa | - | - | - | - |
| 1777467256 | 24.44° C | 40% | 1003.7 hPa | - | - | - | - |
| 1777465813 | 24.44° C | 40% | 1004 hPa | - | - | - | - |
| 1777464376 | 23.89° C | 41% | 1004.2 hPa | - | - | - | - |
| 1777462935 | 23.89° C | 40% | 1004.1 hPa | - | - | - | - |
| 1777460053 | 23.33° C | 41% | 1004.5 hPa | - | - | - | - |
| 1777458613 | 22.78° C | 41% | 1004.7 hPa | - | - | - | - |
| 1777457172 | 22.22° C | 40% | 1004.9 hPa | - | - | - | - |
| 1777455733 | 22.22° C | 40% | 1005 hPa | - | - | - | - |
| 1777454292 | 21.67° C | 38% | 1005 hPa | - | - | - | - |
| 1777452854 | 21.67° C | 38% | 1005 hPa | - | - | - | - |
* Rain since midnight (hover to see other rain measurements)
** Current wind speed in m/s (hover to see current wind gust speed)